This demonstration page uses our WeatherBlox Daily Observations layout. Learn more.

Left ArrowRight Arrow

Hourly Observations for August 6, 2016

Temp ( °F °C ) Dew Point ( °F °C ) Humidity (%) Winds ( mph kmh ) Pressure ( in mb ) Visibility ( mi km ) Precip ( " mm )
12:51 am 00:51 Clear 72 22.2 64 17.8 76 76 Calm 29.81 1009 10 16 0.00 0.00
1:51 am 01:51 Clear 72 22.2 64 17.8 76 76 Calm 29.80 1009 10 16 0.00 0.00
2:51 am 02:51 Clear 71 21.7 63 17.2 76 76 Calm 29.81 1009 10 16 0.00 0.00
3:51 am 03:51 Clear 69 20.6 63 17.2 81 81 Calm 29.82 1010 10 16 0.00 0.00
4:51 am 04:51 Clear 69 20.6 63 17.2 81 81 SSE 3 6 29.83 1010 10 16 0.00 0.00
5:51 am 05:51 Sunny 69 20.6 62 16.7 78 78 Calm 29.85 1011 10 16 0.00 0.00
6:51 am 06:51 Sunny 74 23.3 61 16.1 64 64 SE 8 13 29.85 1011 10 16 0.00 0.00
7:51 am 07:51 Sunny 77 25 61 16.1 58 58 E 8 13 29.86 1011 10 16 0.00 0.00
8:51 am 08:51 Sunny 84 28.9 60 15.6 44 44 SE 12 19 29.85 1011 10 16 0.00 0.00
9:51 am 09:51 Sunny 86 30 60 15.6 42 42 SSE 7 11 29.84 1011 10 16 0.00 0.00
10:51 am 10:51 Sunny 89 31.7 57 13.9 34 34 SSE 6 9 29.83 1010 10 16 0.00 0.00
11:51 am 11:51 Sunny 92 33.3 57 13.9 31 31 Calm 29.81 1009 10 16 0.00 0.00
12:51 pm 12:51 Sunny 96 35.6 56 13.3 26 26 VRB 6 9 29.77 1008 10 16 0.00 0.00
1:51 pm 13:51 Sunny 97 36.1 55 12.8 24 24 undefined N/A 29.74 1007 10 16 0.00 0.00
2:51 pm 14:51 Sunny 99 37.2 55 12.8 23 23 WNW 5 7 29.70 1006 10 16 0.00 0.00
3:51 pm 15:51 Sunny 99 37.2 54 12.2 22 22 SSE 8 13 29.68 1005 10 16 0.00 0.00
4:22 pm 16:22 Partly Cloudy with Nearby Thunderstorms 98 36.7 54 12.2 23 23 SW 6 9 29.56 1001 10 16 0.00 0.00
4:40 pm 16:40 Sunny 99 37.2 55 12.8 23 23 undefined N/A 29.56 1001 10 16 0.00 0.00
4:51 pm 16:51 Sunny 98 36.7 56 13.3 24 24 NW 7 11 29.67 1005 10 16 0.00 0.00
5:41 pm 17:41 Sunny with Nearby Thunderstorms 92 33.3 56 13.3 30 30 SSW 15 24 29.56 1001 10 16 0.00 0.00
5:51 pm 17:51 Sunny 92 33.3 55 12.8 29 29 SW 8 13 29.68 1005 10 16 0.00 0.00
6:13 pm 18:13 Sunny with Nearby Thunderstorms 93 33.9 54 12.2 27 27 SW 6 9 29.59 1002 10 16 0.00 0.00
6:47 pm 18:47 Sunny 91 33 57 14 32 32 Calm 29.62 1003 10 16 0.00 0.00
6:51 pm 18:51 Mostly Sunny 90 32.2 57 13.9 33 33 NNW 8 13 29.72 1007 10 16 0.00 0.00
7:15 pm 19:15 Mostly Clear with Nearby Thunderstorms 87 30.6 55 12.8 34 34 NNW 7 11 29.65 1004 10 16 0.00 0.00
7:30 pm 19:30 Clear 90 32.2 54 12.2 29 29 NNE 6 9 29.62 1003 10 16 0.00 0.00
7:51 pm 19:51 Clear 89 31.7 55 12.8 31 31 ENE 5 7 29.73 1007 10 16 0.00 0.00
8:49 pm 20:49 Partly Cloudy with Nearby Thunderstorms 84 29 59 15 43 43 SE 15 24 29.74 1007 10 16 0.00 0.00
8:51 pm 20:51 Partly Cloudy with Nearby Thunderstorms 84 28.9 59 15 43 43 SE 15 24 29.79 1009 10 16 0.00 0.00
9:04 pm 21:04 Mostly Cloudy 83 28.3 60 15.6 46 46 E 10 17 29.74 1007 10 16 0.00 0.00
9:51 pm 21:51 Mostly Clear 82 27.8 61 16.1 49 49 E 7 11 29.81 1009 10 16 0.00 0.00
10:51 pm 22:51 Clear 84 28.9 58 14.4 41 41 NE 12 19 29.78 1008 10 16 0.00 0.00
11:51 pm 23:51 Clear 80 26.7 61 16.1 52 52 W 9 15 29.81 1009 10 16 0.00 0.00

Powered by AerisWeather